Location: Pebble Beach Sunset Acres
(33.0837°N, 96.4508°W)
Time: 01:41:24
(UTC+00:00)

DELTA 2 R/B (1) - Pass Details

Date: 05 July 2022
Orbit: 790 x 803 km, 39.6° (Epoch: 15 August)

Event Time Altitude Azimuth Distance (km) Brightness Sun altitude
Rises 03:01:57 0° 286° (WNW) 3,292 8.0 -15.2°
Reaches altitude 10° 03:04:45 10° 274° (W) 2,362 6.8 -15.7°
Maximum altitude 03:09:24 27° 218° (SW) 1,478 4.9 -16.4°
Enters shadow 03:12:15 18° 175° (S) 1,864 5.1 -16.8°
